Year,Month,Day,Hour,Minute,Value (Times are PST for temperature in C)
2009,07,15,00,00,13.90
2009,07,15,00,01,13.80
2009,07,15,00,02,13.80
2009,07,15,00,03,13.80
2009,07,15,00,04,13.80
2009,07,15,00,05,13.80
2009,07,15,00,06,13.80
2009,07,15,00,07,13.80
2009,07,15,00,08,13.70
2009,07,15,00,09,13.70
2009,07,15,00,10,13.70
2009,07,15,00,11,13.70
2009,07,15,00,12,13.70
2009,07,15,00,13,13.70
2009,07,15,00,14,13.70
2009,07,15,00,15,13.70
2009,07,15,00,16,13.60
2009,07,15,00,17,13.60
2009,07,15,00,18,13.60
2009,07,15,00,19,13.60
2009,07,15,00,20,13.60
2009,07,15,00,21,13.60
2009,07,15,00,22,13.60
2009,07,15,00,23,13.60
2009,07,15,00,24,13.60
2009,07,15,00,25,13.60
2009,07,15,00,26,13.60
2009,07,15,00,27,13.50
2009,07,15,00,28,13.50
2009,07,15,00,29,13.50
2009,07,15,00,30,13.50
2009,07,15,00,31,13.50
2009,07,15,00,32,13.50
2009,07,15,00,33,13.40
2009,07,15,00,34,13.40
2009,07,15,00,35,13.40
2009,07,15,00,36,13.40
2009,07,15,00,37,13.30
2009,07,15,00,38,13.30
2009,07,15,00,39,13.30
2009,07,15,00,40,13.30
2009,07,15,00,41,13.30
2009,07,15,00,42,13.30
2009,07,15,00,43,13.30
2009,07,15,00,44,13.20
2009,07,15,00,45,13.20
2009,07,15,00,46,13.20
2009,07,15,00,47,13.20
2009,07,15,00,48,13.20
2009,07,15,00,49,13.10
2009,07,15,00,50,13.10
2009,07,15,00,51,13.10
2009,07,15,00,52,13.10
2009,07,15,00,53,13.10
2009,07,15,00,54,13.10
2009,07,15,00,55,13.10
2009,07,15,00,56,13.00
2009,07,15,00,57,13.00
2009,07,15,00,58,13.00
2009,07,15,00,59,13.00
2009,07,15,01,00,13.00
2009,07,15,01,01,13.00
2009,07,15,01,02,13.00
2009,07,15,01,03,12.90
2009,07,15,01,04,12.90
2009,07,15,01,05,12.90
2009,07,15,01,06,12.90
2009,07,15,01,07,12.90
2009,07,15,01,08,12.90
2009,07,15,01,09,12.90
2009,07,15,01,10,12.90
2009,07,15,01,11,12.90
2009,07,15,01,12,12.90
2009,07,15,01,13,12.90
2009,07,15,01,14,12.90
2009,07,15,01,15,13.00
2009,07,15,01,16,13.00
2009,07,15,01,17,13.00
2009,07,15,01,18,13.00
2009,07,15,01,19,13.00
2009,07,15,01,20,13.00
2009,07,15,01,21,13.00
2009,07,15,01,22,13.00
2009,07,15,01,23,13.00
2009,07,15,01,24,13.00
2009,07,15,01,25,13.10
2009,07,15,01,26,13.10
2009,07,15,01,27,13.10
2009,07,15,01,28,13.10
2009,07,15,01,29,13.10
2009,07,15,01,30,13.10
2009,07,15,01,31,13.10
2009,07,15,01,32,13.10
2009,07,15,01,33,13.10
2009,07,15,01,34,13.10
2009,07,15,01,35,13.10
2009,07,15,01,36,13.10
2009,07,15,01,37,13.10
2009,07,15,01,38,13.10
2009,07,15,01,39,13.10
2009,07,15,01,40,13.10
2009,07,15,01,41,13.10
2009,07,15,01,42,13.10
2009,07,15,01,43,13.10
2009,07,15,01,44,13.10
2009,07,15,01,45,13.10
2009,07,15,01,46,13.10
2009,07,15,01,47,13.10
2009,07,15,01,48,13.00
2009,07,15,01,49,13.00
2009,07,15,01,50,13.00
2009,07,15,01,51,13.00
2009,07,15,01,52,12.90
2009,07,15,01,53,12.90
2009,07,15,01,54,12.90
2009,07,15,01,55,12.90
2009,07,15,01,56,12.90
2009,07,15,01,57,12.90
2009,07,15,01,58,12.90
2009,07,15,01,59,12.90
2009,07,15,02,00,12.90
2009,07,15,02,01,12.80
2009,07,15,02,02,12.80
2009,07,15,02,03,12.80
2009,07,15,02,04,12.80
2009,07,15,02,05,12.80
2009,07,15,02,06,12.80
2009,07,15,02,07,12.80
2009,07,15,02,08,12.80
2009,07,15,02,09,12.80
2009,07,15,02,10,12.70
2009,07,15,02,11,12.70
2009,07,15,02,12,12.70
2009,07,15,02,13,12.70
2009,07,15,02,14,12.70
2009,07,15,02,15,12.60
2009,07,15,02,16,12.60
2009,07,15,02,17,12.60
2009,07,15,02,18,12.60
2009,07,15,02,19,12.50
2009,07,15,02,20,12.50
2009,07,15,02,21,12.50
2009,07,15,02,22,12.50
2009,07,15,02,23,12.40
2009,07,15,02,24,12.40
2009,07,15,02,25,12.40
2009,07,15,02,26,12.40
2009,07,15,02,27,12.30
2009,07,15,02,28,12.30
2009,07,15,02,29,12.30
2009,07,15,02,30,12.30
2009,07,15,02,31,12.30
2009,07,15,02,32,12.30
2009,07,15,02,33,12.30
2009,07,15,02,34,12.20
2009,07,15,02,35,12.20
2009,07,15,02,36,12.20
2009,07,15,02,37,12.20
2009,07,15,02,38,12.20
2009,07,15,02,39,12.10
2009,07,15,02,40,12.10
2009,07,15,02,41,12.10
2009,07,15,02,42,12.10
2009,07,15,02,43,12.10
2009,07,15,02,44,12.10
2009,07,15,02,45,12.10
2009,07,15,02,46,12.10
2009,07,15,02,47,12.10
2009,07,15,02,48,12.00
2009,07,15,02,49,12.00
2009,07,15,02,50,12.00
2009,07,15,02,51,12.00
2009,07,15,02,52,12.00
2009,07,15,02,53,12.00
2009,07,15,02,54,12.00
2009,07,15,02,55,11.90
2009,07,15,02,56,11.90
2009,07,15,02,57,11.90
2009,07,15,02,58,11.90
2009,07,15,02,59,11.90
2009,07,15,03,00,11.90
2009,07,15,03,01,11.90
2009,07,15,03,02,11.90
2009,07,15,03,03,11.80
2009,07,15,03,04,11.80
2009,07,15,03,05,11.80
2009,07,15,03,06,11.80
2009,07,15,03,07,11.80
2009,07,15,03,08,11.80
2009,07,15,03,09,11.80
2009,07,15,03,10,11.80
2009,07,15,03,11,11.80
2009,07,15,03,12,11.80
2009,07,15,03,13,11.80
2009,07,15,03,14,11.80
2009,07,15,03,15,11.70
2009,07,15,03,16,11.70
2009,07,15,03,17,11.70
2009,07,15,03,18,11.70
2009,07,15,03,19,11.70
2009,07,15,03,20,11.70
2009,07,15,03,21,11.60
2009,07,15,03,22,11.60
2009,07,15,03,23,11.60
2009,07,15,03,24,11.60
2009,07,15,03,25,11.60
2009,07,15,03,26,11.60
2009,07,15,03,27,11.60
2009,07,15,03,28,11.60
2009,07,15,03,29,11.50
2009,07,15,03,30,11.50
2009,07,15,03,31,11.50
2009,07,15,03,32,11.40
2009,07,15,03,33,11.40
2009,07,15,03,34,11.40
2009,07,15,03,35,11.40
2009,07,15,03,36,11.40
2009,07,15,03,37,11.40
2009,07,15,03,38,11.40
2009,07,15,03,39,11.40
2009,07,15,03,40,11.30
2009,07,15,03,41,11.30
2009,07,15,03,42,11.30
2009,07,15,03,43,11.30
2009,07,15,03,44,11.30
2009,07,15,03,45,11.30
2009,07,15,03,46,11.30
2009,07,15,03,47,11.30
2009,07,15,03,48,11.30
2009,07,15,03,49,11.20
2009,07,15,03,50,11.20
2009,07,15,03,51,11.20
2009,07,15,03,52,11.20
2009,07,15,03,53,11.20
2009,07,15,03,54,11.20
2009,07,15,03,55,11.20
2009,07,15,03,56,11.20
2009,07,15,03,57,11.20
2009,07,15,03,58,11.20
2009,07,15,03,59,11.20
2009,07,15,04,00,11.10
2009,07,15,04,01,11.20
2009,07,15,04,02,11.20
2009,07,15,04,03,11.20
2009,07,15,04,04,11.20
2009,07,15,04,05,11.20
2009,07,15,04,06,11.20
2009,07,15,04,07,11.20
2009,07,15,04,08,11.20
2009,07,15,04,09,11.20
2009,07,15,04,10,11.20
2009,07,15,04,11,11.20
2009,07,15,04,12,11.20
2009,07,15,04,13,11.20
2009,07,15,04,14,11.20
2009,07,15,04,15,11.20
2009,07,15,04,16,11.20
2009,07,15,04,17,11.20
2009,07,15,04,18,11.20
2009,07,15,04,19,11.20
2009,07,15,04,20,11.20
2009,07,15,04,21,11.20
2009,07,15,04,22,11.20
2009,07,15,04,23,11.10
2009,07,15,04,24,11.10
2009,07,15,04,25,11.10
2009,07,15,04,26,11.10
2009,07,15,04,27,11.10
2009,07,15,04,28,11.10
2009,07,15,04,29,11.10
2009,07,15,04,30,11.10
2009,07,15,04,31,11.10
2009,07,15,04,32,11.10
2009,07,15,04,33,11.10
2009,07,15,04,34,11.10
2009,07,15,04,35,11.10
2009,07,15,04,36,11.10
2009,07,15,04,37,11.10
2009,07,15,04,38,11.10
2009,07,15,04,39,11.10
2009,07,15,04,40,11.20
2009,07,15,04,41,11.20
2009,07,15,04,42,11.20
2009,07,15,04,43,11.20
2009,07,15,04,44,11.20
2009,07,15,04,45,11.20
2009,07,15,04,46,11.20
2009,07,15,04,47,11.20
2009,07,15,04,48,11.20
2009,07,15,04,49,11.20
2009,07,15,04,50,11.20
2009,07,15,04,51,11.20
2009,07,15,04,52,11.20
2009,07,15,04,53,11.20
2009,07,15,04,54,11.20
2009,07,15,04,55,11.20
2009,07,15,04,56,11.20
2009,07,15,04,57,11.20
2009,07,15,04,58,11.20
2009,07,15,04,59,11.20
2009,07,15,05,00,11.20
2009,07,15,05,01,11.20
2009,07,15,05,02,11.10
2009,07,15,05,03,11.10
2009,07,15,05,04,11.10
2009,07,15,05,05,11.10
2009,07,15,05,06,11.10
2009,07,15,05,07,11.10
2009,07,15,05,08,11.00
2009,07,15,05,09,11.00
2009,07,15,05,10,11.00
2009,07,15,05,11,11.00
2009,07,15,05,12,10.90
2009,07,15,05,13,10.90
2009,07,15,05,14,10.90
2009,07,15,05,15,10.90
2009,07,15,05,16,10.90
2009,07,15,05,17,10.90
2009,07,15,05,18,10.90
2009,07,15,05,19,10.90
2009,07,15,05,20,10.90
2009,07,15,05,21,10.90
2009,07,15,05,22,10.90
2009,07,15,05,23,10.90
2009,07,15,05,24,10.90
2009,07,15,05,25,10.90
2009,07,15,05,26,10.90
2009,07,15,05,27,10.90
2009,07,15,05,28,10.90
2009,07,15,05,29,10.80
2009,07,15,05,30,10.80
2009,07,15,05,31,10.80
2009,07,15,05,32,10.80
2009,07,15,05,33,10.80
2009,07,15,05,34,10.80
2009,07,15,05,35,10.80
2009,07,15,05,36,10.80
2009,07,15,05,37,10.80
2009,07,15,05,38,10.80
2009,07,15,05,39,10.80
2009,07,15,05,40,10.90
2009,07,15,05,41,10.90
2009,07,15,05,42,10.90
2009,07,15,05,43,10.90
2009,07,15,05,44,10.90
2009,07,15,05,45,10.90
2009,07,15,05,46,10.90
2009,07,15,05,47,10.90
2009,07,15,05,48,10.90
2009,07,15,05,49,11.00
2009,07,15,05,50,11.00
2009,07,15,05,51,11.00
2009,07,15,05,52,11.00
2009,07,15,05,53,11.00
2009,07,15,05,54,11.10
2009,07,15,05,55,11.10
2009,07,15,05,56,11.10
2009,07,15,05,57,11.10
2009,07,15,05,58,11.10
2009,07,15,05,59,11.10
2009,07,15,06,00,11.10
2009,07,15,06,01,11.20
2009,07,15,06,02,11.20
2009,07,15,06,03,11.20
2009,07,15,06,04,11.20
2009,07,15,06,05,11.20
2009,07,15,06,06,11.20
2009,07,15,06,07,11.20
2009,07,15,06,08,11.20
2009,07,15,06,09,11.20
2009,07,15,06,10,11.20
2009,07,15,06,11,11.20
2009,07,15,06,12,11.30
2009,07,15,06,13,11.30
2009,07,15,06,14,11.30
2009,07,15,06,15,11.30
2009,07,15,06,16,11.30
2009,07,15,06,17,11.30
2009,07,15,06,18,11.30
2009,07,15,06,19,11.30
2009,07,15,06,20,11.30
2009,07,15,06,21,11.30
2009,07,15,06,22,11.40
2009,07,15,06,23,11.40
2009,07,15,06,24,11.40
2009,07,15,06,25,11.40
2009,07,15,06,26,11.40
2009,07,15,06,27,11.50
2009,07,15,06,28,11.50
2009,07,15,06,29,11.50
2009,07,15,06,30,11.50
2009,07,15,06,31,11.60
2009,07,15,06,32,11.60
2009,07,15,06,33,11.60
2009,07,15,06,34,11.60
2009,07,15,06,35,11.60
2009,07,15,06,36,11.70
2009,07,15,06,37,11.70
2009,07,15,06,38,11.80
2009,07,15,06,39,11.80
2009,07,15,06,40,11.80
2009,07,15,06,41,11.80
2009,07,15,06,42,11.80
2009,07,15,06,43,11.80
2009,07,15,06,44,11.90
2009,07,15,06,45,11.90
2009,07,15,06,46,11.90
2009,07,15,06,47,11.90
2009,07,15,06,48,11.90
2009,07,15,06,49,11.90
2009,07,15,06,50,12.00
2009,07,15,06,51,12.00
2009,07,15,06,52,12.00
2009,07,15,06,53,12.10
2009,07,15,06,54,12.10
2009,07,15,06,55,12.10
2009,07,15,06,56,12.10
2009,07,15,06,57,12.10
2009,07,15,06,58,12.20
2009,07,15,06,59,12.20
2009,07,15,07,00,12.20
2009,07,15,07,01,12.20
2009,07,15,07,02,12.20
2009,07,15,07,03,12.20
2009,07,15,07,04,12.20
2009,07,15,07,05,12.20
2009,07,15,07,06,12.20
2009,07,15,07,07,12.20
2009,07,15,07,08,12.20
2009,07,15,07,09,12.20
2009,07,15,07,10,12.20
2009,07,15,07,11,12.20
2009,07,15,07,12,12.20
2009,07,15,07,13,12.20
2009,07,15,07,14,12.20
2009,07,15,07,15,12.20
2009,07,15,07,16,12.20
2009,07,15,07,17,12.20
2009,07,15,07,18,12.20
2009,07,15,07,19,12.20
2009,07,15,07,20,12.30
2009,07,15,07,21,12.30
2009,07,15,07,22,12.30
2009,07,15,07,23,12.30
2009,07,15,07,24,12.30
2009,07,15,07,25,12.30
2009,07,15,07,26,12.40
2009,07,15,07,27,12.40
2009,07,15,07,28,12.40
2009,07,15,07,29,12.40
2009,07,15,07,30,12.40
2009,07,15,07,31,12.40
2009,07,15,07,32,12.50
2009,07,15,07,33,12.50
2009,07,15,07,34,12.60
2009,07,15,07,35,12.60
2009,07,15,07,36,12.60
2009,07,15,07,37,12.60
2009,07,15,07,38,12.70
2009,07,15,07,39,12.70
2009,07,15,07,40,12.70
2009,07,15,07,41,12.80
2009,07,15,07,42,12.80
2009,07,15,07,43,12.80
2009,07,15,07,44,12.80
2009,07,15,07,45,12.90
2009,07,15,07,46,12.90
2009,07,15,07,47,13.00
2009,07,15,07,48,13.10
2009,07,15,07,49,13.10
2009,07,15,07,50,13.20
2009,07,15,07,51,13.20
2009,07,15,07,52,13.20
2009,07,15,07,53,13.30
2009,07,15,07,54,13.30
2009,07,15,07,55,13.40
2009,07,15,07,56,13.40
2009,07,15,07,57,13.50
2009,07,15,07,58,13.50
2009,07,15,07,59,13.60
2009,07,15,08,00,13.60
2009,07,15,08,01,13.70
2009,07,15,08,02,13.70
2009,07,15,08,03,13.70
2009,07,15,08,04,13.80
2009,07,15,08,05,13.80
2009,07,15,08,06,13.80
2009,07,15,08,07,13.80
2009,07,15,08,08,13.80
2009,07,15,08,09,13.90
2009,07,15,08,10,13.90
2009,07,15,08,11,13.90
2009,07,15,08,12,13.90
2009,07,15,08,13,13.90
2009,07,15,08,14,14.00
2009,07,15,08,15,14.00
2009,07,15,08,16,14.10
2009,07,15,08,17,14.10
2009,07,15,08,18,14.10
2009,07,15,08,19,14.10
2009,07,15,08,20,14.20
2009,07,15,08,21,14.20
2009,07,15,08,22,14.20
2009,07,15,08,23,14.30
2009,07,15,08,24,14.30
2009,07,15,08,25,14.40
2009,07,15,08,26,14.40
2009,07,15,08,27,14.50
2009,07,15,08,28,14.50
2009,07,15,08,29,14.60
2009,07,15,08,30,14.60
2009,07,15,08,31,14.70
2009,07,15,08,32,14.80
2009,07,15,08,33,14.90
2009,07,15,08,34,15.00
2009,07,15,08,35,15.00
2009,07,15,08,36,15.00
2009,07,15,08,37,15.00
2009,07,15,08,38,15.00
2009,07,15,08,39,15.00
2009,07,15,08,40,15.00
2009,07,15,08,41,15.10
2009,07,15,08,42,15.20
2009,07,15,08,43,15.20
2009,07,15,08,44,15.30
2009,07,15,08,45,15.30
2009,07,15,08,46,15.30
2009,07,15,08,47,15.40
2009,07,15,08,48,15.40
2009,07,15,08,49,15.40
2009,07,15,08,50,15.50
2009,07,15,08,51,15.50
2009,07,15,08,52,15.60
2009,07,15,08,53,15.60
2009,07,15,08,54,15.70
2009,07,15,08,55,15.70
2009,07,15,08,56,15.70
2009,07,15,08,57,15.70
2009,07,15,08,58,15.80
2009,07,15,08,59,15.80
2009,07,15,09,00,15.80
2009,07,15,09,01,15.90
2009,07,15,09,02,16.00
2009,07,15,09,03,16.00
2009,07,15,09,04,16.10
2009,07,15,09,05,16.10
2009,07,15,09,06,16.20
2009,07,15,09,07,16.20
2009,07,15,09,08,16.30
2009,07,15,09,09,16.30
2009,07,15,09,10,16.40
2009,07,15,09,11,16.40
2009,07,15,09,12,16.50
2009,07,15,09,13,16.50
2009,07,15,09,14,16.60
2009,07,15,09,15,16.60
2009,07,15,09,16,16.60
2009,07,15,09,17,16.70
2009,07,15,09,18,16.70
2009,07,15,09,19,16.80
2009,07,15,09,20,16.80
2009,07,15,09,21,16.80
2009,07,15,09,22,16.80
2009,07,15,09,23,16.90
2009,07,15,09,24,16.90
2009,07,15,09,25,16.90
2009,07,15,09,26,16.90
2009,07,15,09,27,16.90
2009,07,15,09,28,17.00
2009,07,15,09,29,17.00
2009,07,15,09,30,17.10
2009,07,15,09,31,17.20
2009,07,15,09,32,17.20
2009,07,15,09,33,17.30
2009,07,15,09,34,17.40
2009,07,15,09,35,17.50
2009,07,15,09,36,17.60
2009,07,15,09,37,17.70
2009,07,15,09,38,17.80
2009,07,15,09,39,17.90
2009,07,15,09,40,18.10
2009,07,15,09,41,18.20
2009,07,15,09,42,18.30
2009,07,15,09,43,18.50
2009,07,15,09,44,18.60
2009,07,15,09,45,18.70
2009,07,15,09,46,18.80
2009,07,15,09,47,18.80
2009,07,15,09,48,18.80
2009,07,15,09,49,18.90
2009,07,15,09,50,18.90
2009,07,15,09,51,19.00
2009,07,15,09,52,19.10
2009,07,15,09,53,19.20
2009,07,15,09,54,19.30
2009,07,15,09,55,19.40
2009,07,15,09,56,19.50
2009,07,15,09,57,19.60
2009,07,15,09,58,19.70
2009,07,15,09,59,19.70
2009,07,15,10,00,19.60
2009,07,15,10,01,19.60
2009,07,15,10,02,19.50
2009,07,15,10,03,19.40
2009,07,15,10,04,19.30
2009,07,15,10,05,19.20
2009,07,15,10,06,19.20
2009,07,15,10,07,19.20
2009,07,15,10,08,19.20
2009,07,15,10,09,19.20
2009,07,15,10,10,19.30
2009,07,15,10,11,19.30
2009,07,15,10,12,19.20
2009,07,15,10,13,19.10
2009,07,15,10,14,19.10
2009,07,15,10,15,19.00
2009,07,15,10,16,19.00
2009,07,15,10,17,18.90
2009,07,15,10,18,18.90
2009,07,15,10,19,19.00
2009,07,15,10,20,19.00
2009,07,15,10,21,19.10
2009,07,15,10,22,19.20
2009,07,15,10,23,19.20
2009,07,15,10,24,19.20
2009,07,15,10,25,19.20
2009,07,15,10,26,19.10
2009,07,15,10,27,19.20
2009,07,15,10,28,19.20
2009,07,15,10,29,19.20
2009,07,15,10,30,19.30
2009,07,15,10,31,19.30
2009,07,15,10,32,19.30
2009,07,15,10,33,19.30
2009,07,15,10,34,19.20
2009,07,15,10,35,19.10
2009,07,15,10,36,19.00
2009,07,15,10,37,19.00
2009,07,15,10,38,18.90
2009,07,15,10,39,18.90
2009,07,15,10,40,18.90
2009,07,15,10,41,19.00
2009,07,15,10,42,19.00
2009,07,15,10,43,19.00
2009,07,15,10,44,19.10
2009,07,15,10,45,19.20
2009,07,15,10,46,19.30
2009,07,15,10,47,19.30
2009,07,15,10,48,19.40
2009,07,15,10,49,19.50
2009,07,15,10,50,19.60
2009,07,15,10,51,19.60
2009,07,15,10,52,19.70
2009,07,15,10,53,19.70
2009,07,15,10,54,19.80
2009,07,15,10,55,19.80
2009,07,15,10,56,19.80
2009,07,15,10,57,19.90
2009,07,15,10,58,20.00
2009,07,15,10,59,20.10
2009,07,15,11,00,20.30
2009,07,15,11,01,20.30
2009,07,15,11,02,20.30
2009,07,15,11,03,20.40
2009,07,15,11,04,20.40
2009,07,15,11,05,20.40
2009,07,15,11,06,20.40
2009,07,15,11,07,20.40
2009,07,15,11,08,20.40
2009,07,15,11,09,20.40
2009,07,15,11,10,20.40
2009,07,15,11,11,20.40
2009,07,15,11,12,20.40
2009,07,15,11,13,20.50
2009,07,15,11,14,20.60
2009,07,15,11,15,20.70
2009,07,15,11,16,20.80
2009,07,15,11,17,21.00
2009,07,15,11,18,21.10
2009,07,15,11,19,21.20
2009,07,15,11,20,21.20
2009,07,15,11,21,21.30
2009,07,15,11,22,21.30
2009,07,15,11,23,21.40
2009,07,15,11,24,21.30
2009,07,15,11,25,21.30
2009,07,15,11,26,21.20
2009,07,15,11,27,21.10
2009,07,15,11,28,21.10
2009,07,15,11,29,21.10
2009,07,15,11,30,21.10
2009,07,15,11,31,21.00
2009,07,15,11,32,20.90
2009,07,15,11,33,20.80
2009,07,15,11,34,20.80
2009,07,15,11,35,20.80
2009,07,15,11,36,20.80
2009,07,15,11,37,20.80
2009,07,15,11,38,20.80
2009,07,15,11,39,20.80
2009,07,15,11,40,20.80
2009,07,15,11,41,20.80
2009,07,15,11,42,20.70
2009,07,15,11,43,20.60
2009,07,15,11,44,20.60
2009,07,15,11,45,20.50
2009,07,15,11,46,20.50
2009,07,15,11,47,20.50
2009,07,15,11,48,20.60
2009,07,15,11,49,20.60
2009,07,15,11,50,20.70
2009,07,15,11,51,20.80
2009,07,15,11,52,20.80
2009,07,15,11,53,20.80
2009,07,15,11,54,20.80
2009,07,15,11,55,20.90
2009,07,15,11,56,20.90
2009,07,15,11,57,21.00
2009,07,15,11,58,21.00
2009,07,15,11,59,21.10
2009,07,15,12,00,21.10
2009,07,15,12,01,21.10
2009,07,15,12,02,21.00
2009,07,15,12,03,20.90
2009,07,15,12,04,20.80
2009,07,15,12,05,20.80
2009,07,15,12,06,20.90
2009,07,15,12,07,21.00
2009,07,15,12,08,21.10
2009,07,15,12,09,21.20
2009,07,15,12,10,21.30
2009,07,15,12,11,21.30
2009,07,15,12,12,21.30
2009,07,15,12,13,21.30
2009,07,15,12,14,21.20
2009,07,15,12,15,21.10
2009,07,15,12,16,21.10
2009,07,15,12,17,21.20
2009,07,15,12,18,21.40
2009,07,15,12,19,21.60
2009,07,15,12,20,21.80
2009,07,15,12,21,21.90
2009,07,15,12,22,22.00
2009,07,15,12,23,22.10
2009,07,15,12,24,22.20
2009,07,15,12,25,22.20
2009,07,15,12,26,22.20
2009,07,15,12,27,22.10
2009,07,15,12,28,22.10
2009,07,15,12,29,22.10
2009,07,15,12,30,22.10
2009,07,15,12,31,22.00
2009,07,15,12,32,21.80
2009,07,15,12,33,21.70
2009,07,15,12,34,21.70
2009,07,15,12,35,21.70
2009,07,15,12,36,21.80
2009,07,15,12,37,21.80
2009,07,15,12,38,21.80
2009,07,15,12,39,21.70
2009,07,15,12,40,21.70
2009,07,15,12,41,21.70
2009,07,15,12,42,21.70
2009,07,15,12,43,21.80
2009,07,15,12,44,21.80
2009,07,15,12,45,21.90
2009,07,15,12,46,22.00
2009,07,15,12,47,22.10
2009,07,15,12,48,22.10
2009,07,15,12,49,22.20
2009,07,15,12,50,22.20
2009,07,15,12,51,22.20
2009,07,15,12,52,22.20
2009,07,15,12,53,22.30
2009,07,15,12,54,22.30
2009,07,15,12,55,22.30
2009,07,15,12,56,22.40
2009,07,15,12,57,22.50
2009,07,15,12,58,22.50
2009,07,15,12,59,22.40
2009,07,15,13,00,22.40
2009,07,15,13,01,22.40
2009,07,15,13,02,22.40
2009,07,15,13,03,22.40
2009,07,15,13,04,22.40
2009,07,15,13,05,22.40
2009,07,15,13,06,22.50
2009,07,15,13,07,22.50
2009,07,15,13,08,22.50
2009,07,15,13,09,22.50
2009,07,15,13,10,22.40
2009,07,15,13,11,22.30
2009,07,15,13,12,22.20
2009,07,15,13,13,22.20
2009,07,15,13,14,22.30
2009,07,15,13,15,22.20
2009,07,15,13,16,22.20
2009,07,15,13,17,22.20
2009,07,15,13,18,22.30
2009,07,15,13,19,22.30
2009,07,15,13,20,22.40
2009,07,15,13,21,22.50
2009,07,15,13,22,22.50
2009,07,15,13,23,22.60
2009,07,15,13,24,22.60
2009,07,15,13,25,22.60
2009,07,15,13,26,22.60
2009,07,15,13,27,22.60
2009,07,15,13,28,22.50
2009,07,15,13,29,22.50
2009,07,15,13,30,22.60
2009,07,15,13,31,22.70
2009,07,15,13,32,22.80
2009,07,15,13,33,22.80
2009,07,15,13,34,22.80
2009,07,15,13,35,22.70
2009,07,15,13,36,22.70
2009,07,15,13,37,22.70
2009,07,15,13,38,22.70
2009,07,15,13,39,22.70
2009,07,15,13,40,22.70
2009,07,15,13,41,22.80
2009,07,15,13,42,22.90
2009,07,15,13,43,22.90
2009,07,15,13,44,23.00
2009,07,15,13,45,23.10
2009,07,15,13,46,23.10
2009,07,15,13,47,23.20
2009,07,15,13,48,23.20
2009,07,15,13,49,23.10
2009,07,15,13,50,23.10
2009,07,15,13,51,23.10
2009,07,15,13,52,23.10
2009,07,15,13,53,23.10
2009,07,15,13,54,23.10
2009,07,15,13,55,23.10
2009,07,15,13,56,23.20
2009,07,15,13,57,23.20
2009,07,15,13,58,23.20
2009,07,15,13,59,23.30
2009,07,15,14,00,23.30
2009,07,15,14,01,23.30
2009,07,15,14,02,23.30
2009,07,15,14,03,23.40
2009,07,15,14,04,23.50
2009,07,15,14,05,23.50
2009,07,15,14,06,23.50
2009,07,15,14,07,23.50
2009,07,15,14,08,23.40
2009,07,15,14,09,23.50
2009,07,15,14,10,23.70
2009,07,15,14,11,23.80
2009,07,15,14,12,23.90
2009,07,15,14,13,24.00
2009,07,15,14,14,24.00
2009,07,15,14,15,24.10
2009,07,15,14,16,24.20
2009,07,15,14,17,24.30
2009,07,15,14,18,24.50
2009,07,15,14,19,24.50
2009,07,15,14,20,24.50
2009,07,15,14,21,24.40
2009,07,15,14,22,24.40
2009,07,15,14,23,24.40
2009,07,15,14,24,24.40
2009,07,15,14,25,24.30
2009,07,15,14,26,24.30
2009,07,15,14,27,24.30
2009,07,15,14,28,24.30
2009,07,15,14,29,24.40
2009,07,15,14,30,24.50
2009,07,15,14,31,24.80
2009,07,15,14,32,24.90
2009,07,15,14,33,25.00
2009,07,15,14,34,24.90
2009,07,15,14,35,24.80
2009,07,15,14,36,24.80
2009,07,15,14,37,24.80
2009,07,15,14,38,24.60
2009,07,15,14,39,24.50
2009,07,15,14,40,24.40
2009,07,15,14,41,24.40
2009,07,15,14,42,24.30
2009,07,15,14,43,24.30
2009,07,15,14,44,24.30
2009,07,15,14,45,24.40
2009,07,15,14,46,24.40
2009,07,15,14,47,24.50
2009,07,15,14,48,24.60
2009,07,15,14,49,24.60
2009,07,15,14,50,24.70
2009,07,15,14,51,24.70
2009,07,15,14,52,24.80
2009,07,15,14,53,24.80
2009,07,15,14,54,24.70
2009,07,15,14,55,24.70
2009,07,15,14,56,24.60
2009,07,15,14,57,24.50
2009,07,15,14,58,24.50
2009,07,15,14,59,24.40
2009,07,15,15,00,24.30
2009,07,15,15,01,24.20
2009,07,15,15,02,24.20
2009,07,15,15,03,24.10
2009,07,15,15,04,24.00
2009,07,15,15,05,23.90
2009,07,15,15,06,23.90
2009,07,15,15,07,24.00
2009,07,15,15,08,24.00
2009,07,15,15,09,24.10
2009,07,15,15,10,24.10
2009,07,15,15,11,24.20
2009,07,15,15,12,24.20
2009,07,15,15,13,24.20
2009,07,15,15,14,24.20
2009,07,15,15,15,24.30
2009,07,15,15,16,24.30
2009,07,15,15,17,24.40
2009,07,15,15,18,24.50
2009,07,15,15,19,24.70
2009,07,15,15,20,24.80
2009,07,15,15,21,24.80
2009,07,15,15,22,24.90
2009,07,15,15,23,24.80
2009,07,15,15,24,25.00
2009,07,15,15,25,25.10
2009,07,15,15,26,25.20
2009,07,15,15,27,25.20
2009,07,15,15,28,25.20
2009,07,15,15,29,25.10
2009,07,15,15,30,25.00
2009,07,15,15,31,25.00
2009,07,15,15,32,25.00
2009,07,15,15,33,24.90
2009,07,15,15,34,24.90
2009,07,15,15,35,24.80
2009,07,15,15,36,24.80
2009,07,15,15,37,24.70
2009,07,15,15,38,24.60
2009,07,15,15,39,24.50
2009,07,15,15,40,24.50
2009,07,15,15,41,24.60
2009,07,15,15,42,24.70
2009,07,15,15,43,24.90
2009,07,15,15,44,25.00
2009,07,15,15,45,25.20
2009,07,15,15,46,25.30
2009,07,15,15,47,25.40
2009,07,15,15,48,25.30
2009,07,15,15,49,25.30
2009,07,15,15,50,25.30
2009,07,15,15,51,25.20
2009,07,15,15,52,25.20
2009,07,15,15,53,25.10
2009,07,15,15,54,25.10
2009,07,15,15,55,25.10
2009,07,15,15,56,25.10
2009,07,15,15,57,25.20
2009,07,15,15,58,25.30
2009,07,15,15,59,25.30
2009,07,15,16,00,25.30
2009,07,15,16,01,25.30
2009,07,15,16,02,25.30
2009,07,15,16,03,25.30
2009,07,15,16,04,25.30
2009,07,15,16,05,25.30
2009,07,15,16,06,25.30
2009,07,15,16,07,25.40
2009,07,15,16,08,25.50
2009,07,15,16,09,25.50
2009,07,15,16,10,25.60
2009,07,15,16,11,25.70
2009,07,15,16,12,25.80
2009,07,15,16,13,25.90
2009,07,15,16,14,25.90
2009,07,15,16,15,25.90
2009,07,15,16,16,25.90
2009,07,15,16,17,25.90
2009,07,15,16,18,25.90
2009,07,15,16,19,25.90
2009,07,15,16,20,26.00
2009,07,15,16,21,26.10
2009,07,15,16,22,26.10
2009,07,15,16,23,26.10
2009,07,15,16,24,26.10
2009,07,15,16,25,26.00
2009,07,15,16,26,26.00
2009,07,15,16,27,26.10
2009,07,15,16,28,26.00
2009,07,15,16,29,25.90
2009,07,15,16,30,25.80
2009,07,15,16,31,25.70
2009,07,15,16,32,25.60
2009,07,15,16,33,25.60
2009,07,15,16,34,25.50
2009,07,15,16,35,25.50
2009,07,15,16,36,25.40
2009,07,15,16,37,25.40
2009,07,15,16,38,25.40
2009,07,15,16,39,25.50
2009,07,15,16,40,25.60
2009,07,15,16,41,25.70
2009,07,15,16,42,25.80
2009,07,15,16,43,25.90
2009,07,15,16,44,26.00
2009,07,15,16,45,26.10
2009,07,15,16,46,26.30
2009,07,15,16,47,26.40
2009,07,15,16,48,26.50
2009,07,15,16,49,26.60
2009,07,15,16,50,26.70
2009,07,15,16,51,26.70
2009,07,15,16,52,26.80
2009,07,15,16,53,26.90
2009,07,15,16,54,27.00
2009,07,15,16,55,27.10
2009,07,15,16,56,27.10
2009,07,15,16,57,27.00
2009,07,15,16,58,26.70
2009,07,15,16,59,26.50
2009,07,15,17,00,26.40
2009,07,15,17,01,26.30
2009,07,15,17,02,26.30
2009,07,15,17,03,26.20
2009,07,15,17,04,26.30
2009,07,15,17,05,26.20
2009,07,15,17,06,26.20
2009,07,15,17,07,26.30
2009,07,15,17,08,26.30
2009,07,15,17,09,26.40
2009,07,15,17,10,26.40
2009,07,15,17,11,26.50
2009,07,15,17,12,26.60
2009,07,15,17,13,26.60
2009,07,15,17,14,26.60
2009,07,15,17,15,26.60
2009,07,15,17,16,26.60
2009,07,15,17,17,26.60
2009,07,15,17,18,26.50
2009,07,15,17,19,26.50